OK,99,84,1048,99,2014-10-01T01:40:00,0,28072818,158475
OK,99,84,1048,99,2014-10-01T01:45:00,0,28073265,158475
OK,92,91,1048,92,2014-10-01T01:50:00,1,28073713,158475
OK,92,91,1048,92,2014-10-01T01:55:00,5,28074031,158475
OK,91,92,1048,91,2014-10-01T02:05:00,9,28074920,158475
OK,91,92,1048,91,2014-10-01T02:10:00,3,28075369,158475
OK,97,86,1048,97,2014-10-01T02:15:00,2,28075818,158475
OK,95,88,1048,95,2014-10-01T02:20:00,6,28076201,158475
OK,79,106,1048,79,2014-10-01T02:25:00,5,28076650,158475
OK,80,105,1048,80,2014-10-01T02:30:00,6,28077099,158475
OK,75,112,1048,75,2014-10-01T02:35:00,7,28077548,158475
OK,70,120,1048,70,2014-10-01T02:40:00,5,28077951,158475
OK,79,106,1048,79,2014-10-01T02:45:00,4,28078400,158475
OK,91,92,1048,91,2014-10-01T02:50:00,12,28078845,158475
OK,91,92,1048,91,2014-10-01T02:55:00,20,28079293,158475
OK,93,90,1048,93,2014-10-01T03:00:00,20,28079736,158475
OK,80,105,1048,80,2014-10-01T03:05:00,13,28080185,158475
OK,83,101,1048,83,2014-10-01T03:10:00,7,28080519,158475
OK,75,112,1048,75,2014-10-01T03:15:00,6,28080968,158475
OK,80,105,1048,80,2014-10-01T03:20:00,10,28081417,158475
OK,73,115,1048,73,2014-10-01T03:25:00,16,28081864,158475
OK,77,109,1048,77,2014-10-01T03:30:00,18,28082313,158475
OK,92,91,1048,92,2014-10-01T03:35:00,18,28082746,158475
OK,90,93,1048,90,2014-10-01T03:40:00,25,28083178,158475
OK,87,96,1048,87,2014-10-01T03:45:00,26,28083627,158475
OK,74,113,1048,74,2014-10-01T03:50:00,22,28084076,158475
OK,77,109,1048,77,2014-10-01T03:55:00,31,28084517,158475
OK,80,105,1048,80,2014-10-01T04:00:00,32,28084942,158475
OK,77,109,1048,77,2014-10-01T04:05:00,31,28085391,158475
OK,71,118,1048,71,2014-10-01T04:10:00,23,28085836,158475
OK,73,115,1048,73,2014-10-01T04:15:00,21,28086285,158475
OK,75,112,1048,75,2014-10-01T04:20:00,32,28086727,158475
OK,75,112,1048,75,2014-10-01T04:25:00,47,28087176,158475
OK,77,109,1048,77,2014-10-01T04:30:00,48,28087621,158475
OK,79,106,1048,79,2014-10-01T04:35:00,43,28088070,158475
OK,80,105,1048,80,2014-10-01T04:40:00,40,28088494,158475
OK,80,105,1048,80,2014-10-01T04:45:00,43,28088943,158475
OK,78,107,1048,78,2014-10-01T04:50:00,66,28089373,158475
OK,78,107,1048,78,2014-10-01T04:55:00,60,28089822,158475
OK,77,109,1048,77,2014-10-01T05:00:00,44,28090271,158475
OK,81,103,1048,81,2014-10-01T05:05:00,56,28090615,158475
OK,80,105,1048,80,2014-10-01T05:10:00,61,28091064,158475
OK,79,106,1048,79,2014-10-01T05:15:00,50,28091513,158475
OK,83,101,1048,83,2014-10-01T05:20:00,53,28091930,158475
OK,84,100,1048,84,2014-10-01T05:25:00,49,28092379,158475
OK,83,101,1048,83,2014-10-01T05:30:00,45,28092823,158475
OK,92,91,1048,92,2014-10-01T05:35:00,58,28093264,158475
OK,101,83,1048,101,2014-10-01T05:40:00,58,28093695,158475
OK,117,71,1048,117,2014-10-01T05:45:00,65,28094144,158475
OK,115,73,1048,115,2014-10-01T05:50:00,75,28094555,158475
OK,103,81,1048,103,2014-10-01T05:55:00,65,28095000,158475
OK,83,101,1048,83,2014-10-01T06:00:00,43,28095447,158475
OK,80,105,1048,80,2014-10-01T06:05:00,44,28095896,158475
OK,79,106,1048,79,2014-10-01T06:10:00,60,28096309,158475
OK,76,110,1048,76,2014-10-01T06:15:00,55,28096758,158475
OK,76,110,1048,76,2014-10-01T06:20:00,48,28097192,158475
OK,74,113,1048,74,2014-10-01T06:25:00,55,28097641,158475
OK,74,113,1048,74,2014-10-01T06:30:00,50,28098090,158475
OK,76,110,1048,76,2014-10-01T06:35:00,58,28098527,158475
OK,76,110,1048,76,2014-10-01T06:40:00,54,28098971,158475
OK,73,115,1048,73,2014-10-01T06:45:00,45,28099419,158475
OK,81,103,1048,81,2014-10-01T06:50:00,48,28099762,158475
OK,81,103,1048,81,2014-10-01T06:55:00,56,28100211,158475
OK,78,107,1048,78,2014-10-01T07:00:00,45,28100518,158475
OK,78,107,1048,78,2014-10-01T07:10:00,41,28101338,158475
OK,72,116,1048,72,2014-10-01T07:15:00,48,28101787,158475
OK,73,115,1048,73,2014-10-01T07:20:00,29,28102223,158475
OK,79,106,1048,79,2014-10-01T07:25:00,27,28102672,158475
OK,78,107,1048,78,2014-10-01T07:30:00,28,28103100,158475
OK,76,110,1048,76,2014-10-01T07:35:00,33,28103546,158475
OK,81,103,1048,81,2014-10-01T07:40:00,32,28103991,158475
OK,81,103,1048,81,2014-10-01T07:45:00,32,28104436,158475
OK,80,105,1048,80,2014-10-01T07:50:00,35,28104877,158475
OK,93,90,1048,93,2014-10-01T07:55:00,35,28105322,158475
OK,78,107,1048,78,2014-10-01T08:00:00,43,28105762,158475
OK,77,109,1048,77,2014-10-01T08:05:00,44,28106211,158475
OK,86,97,1048,86,2014-10-01T08:10:00,37,28106648,158475
OK,86,97,1048,86,2014-10-01T08:15:00,30,28107054,158475
OK,94,89,1048,94,2014-10-01T08:20:00,34,28107486,158475
OK,95,88,1048,95,2014-10-01T08:25:00,37,28107935,158475
OK,94,89,1048,94,2014-10-01T08:30:00,36,28108374,158475
OK,93,90,1048,93,2014-10-01T08:35:00,50,28108823,158475
OK,92,91,1048,92,2014-10-01T08:40:00,52,28109251,158475
OK,82,102,1048,82,2014-10-01T08:45:00,33,28109700,158475
OK,82,102,1048,82,2014-10-01T08:50:00,36,28110043,158475
OK,87,96,1048,87,2014-10-01T09:00:00,33,28110915,158475
OK,81,103,1048,81,2014-10-01T09:05:00,29,28111364,158475
OK,90,93,1048,90,2014-10-01T09:10:00,29,28111793,158475
OK,90,93,1048,90,2014-10-01T09:15:00,32,28112242,158475
OK,80,105,1048,80,2014-10-01T09:20:00,35,28112583,158475
OK,90,93,1048,90,2014-10-01T09:30:00,22,28113456,158475
OK,86,97,1048,86,2014-10-01T09:35:00,38,28113905,158475
OK,86,97,1048,86,2014-10-01T09:40:00,41,28114337,158475
OK,93,90,1048,93,2014-10-01T09:45:00,23,28114786,158475
OK,86,97,1048,86,2014-10-01T09:50:00,2,28115140,158475
OK,89,94,1048,89,2014-10-01T10:00:00,27,28116001,158475
OK,91,92,1048,91,2014-10-01T10:05:00,44,28116450,158475
OK,92,91,1048,92,2014-10-01T10:10:00,47,28116858,158475
OK,78,107,1048,78,2014-10-01T10:15:00,31,28117307,158475
OK,81,103,1048,81,2014-10-01T10:20:00,26,28117732,158475
OK,78,107,1048,78,2014-10-01T10:25:00,22,28118181,158475
OK,73,115,1048,73,2014-10-01T10:30:00,32,28118626,158475
OK,76,110,1048,76,2014-10-01T10:35:00,32,28119073,158475
OK,92,91,1048,92,2014-10-01T10:40:00,17,28119517,158475
OK,92,91,1048,92,2014-10-01T10:45:00,23,28119965,158475
OK,78,107,1048,78,2014-10-01T10:50:00,28,28120413,158475
OK,71,118,1048,71,2014-10-01T10:55:00,18,28120862,158475
OK,83,101,1048,83,2014-10-01T11:00:00,38,28121245,158475
OK,75,112,1048,75,2014-10-01T11:05:00,50,28121694,158475
OK,74,113,1048,74,2014-10-01T11:10:00,43,28122132,158475
OK,78,107,1048,78,2014-10-01T11:15:00,42,28122581,158475
OK,82,102,1048,82,2014-10-01T11:20:00,30,28123022,158475
OK,85,98,1048,85,2014-10-01T11:25:00,32,28123471,158475
OK,81,103,1048,81,2014-10-01T11:30:00,34,28123903,158475
OK,76,110,1048,76,2014-10-01T11:35:00,34,28124352,158475
OK,76,110,1048,76,2014-10-01T11:40:00,40,28124754,158475
OK,91,92,1048,91,2014-10-01T11:45:00,36,28125203,158475
OK,92,91,1048,92,2014-10-01T11:50:00,43,28125632,158475
OK,79,106,1048,79,2014-10-01T11:55:00,43,28126081,158475
OK,88,95,1048,88,2014-10-01T12:00:00,32,28126433,158475
OK,86,97,1048,86,2014-10-01T12:10:00,35,28127331,158475
OK,91,92,1048,91,2014-10-01T12:15:00,37,28127780,158475
OK,84,100,1048,84,2014-10-01T12:20:00,33,28128208,158475
OK,77,109,1048,77,2014-10-01T12:25:00,33,28128657,158475
OK,89,94,1048,89,2014-10-01T12:30:00,31,28129092,158475
OK,89,94,1048,89,2014-10-01T12:35:00,32,28129541,158475
OK,73,115,1048,73,2014-10-01T12:40:00,29,28129975,158475
OK,75,112,1048,75,2014-10-01T12:45:00,20,28130424,158475
OK,75,112,1048,75,2014-10-01T12:50:00,36,28130852,158475
OK,74,113,1048,74,2014-10-01T12:55:00,38,28131301,158475
OK,73,115,1048,73,2014-10-01T13:00:00,36,28131738,158475
OK,74,113,1048,74,2014-10-01T13:05:00,29,28132187,158475
OK,75,112,1048,75,2014-10-01T13:10:00,41,28132625,158475
OK,82,102,1048,82,2014-10-01T13:15:00,51,28133072,158475
OK,82,102,1048,82,2014-10-01T13:20:00,30,28133510,158475
OK,93,90,1048,93,2014-10-01T13:25:00,31,28133959,158475
OK,81,103,1048,81,2014-10-01T13:30:00,39,28134398,158475
OK,73,115,1048,73,2014-10-01T13:35:00,36,28134847,158475
OK,75,112,1048,75,2014-10-01T13:40:00,28,28135266,158475
OK,76,110,1048,76,2014-10-01T13:45:00,34,28135715,158475
OK,73,115,1048,73,2014-10-01T13:50:00,33,28136152,158475
OK,75,112,1048,75,2014-10-01T13:55:00,34,28136601,158475
OK,76,110,1048,76,2014-10-01T14:00:00,35,28137041,158475
OK,72,116,1048,72,2014-10-01T14:05:00,24,28137490,158475
OK,74,113,1048,74,2014-10-01T14:10:00,34,28137924,158475
OK,77,109,1048,77,2014-10-01T14:15:00,31,28138373,158475
OK,78,107,1048,78,2014-10-01T14:20:00,41,28138801,158475
OK,78,107,1048,78,2014-10-01T14:25:00,54,28139250,158475
OK,78,107,1048,78,2014-10-01T14:30:00,56,28139661,158475
OK,79,106,1048,79,2014-10-01T14:35:00,51,28140110,158475
OK,74,113,1048,74,2014-10-01T14:40:00,45,28140552,158475
OK,73,115,1048,73,2014-10-01T14:45:00,33,28141001,158475
OK,76,110,1048,76,2014-10-01T14:50:00,47,28141427,158475
OK,76,110,1048,76,2014-10-01T14:55:00,48,28141876,158475
OK,77,109,1048,77,2014-10-01T15:00:00,34,28142304,158475
OK,75,112,1048,75,2014-10-01T15:05:00,38,28142753,158475
OK,74,113,1048,74,2014-10-01T15:10:00,39,28143180,158475
OK,71,118,1048,71,2014-10-01T15:15:00,35,28143629,158475
OK,71,118,1048,71,2014-10-01T15:20:00,35,28144077,158475
OK,70,120,1048,70,2014-10-01T15:25:00,30,28144526,158475
OK,67,125,1048,67,2014-10-01T15:30:00,27,28144947,158475
OK,75,112,1048,75,2014-10-01T15:35:00,37,28145361,158475
OK,76,110,1048,76,2014-10-01T15:40:00,33,28145810,158475
OK,79,106,1048,79,2014-10-01T15:45:00,21,28146259,158475
OK,79,106,1048,79,2014-10-01T15:50:00,24,28146708,158475
OK,83,101,1048,83,2014-10-01T15:55:00,28,28147116,158475
OK,84,100,1048,84,2014-10-01T16:00:00,19,28147560,158475
OK,73,115,1048,73,2014-10-01T16:05:00,16,28148009,158475
OK,72,116,1048,72,2014-10-01T16:10:00,27,28148410,158475
OK,73,115,1048,73,2014-10-01T16:20:00,12,28149298,158475
OK,68,123,1048,68,2014-10-01T16:25:00,16,28149747,158475
OK,66,127,1048,66,2014-10-01T16:30:00,0,28150173,158475
OK,86,97,1048,86,2014-10-01T16:35:00,16,28150622,158475
OK,89,94,1048,89,2014-10-01T16:40:00,18,28151040,158475
OK,91,92,1048,91,2014-10-01T16:45:00,13,28151489,158475
OK,72,116,1048,72,2014-10-01T16:50:00,11,28151938,158475
OK,78,107,1048,78,2014-10-01T17:00:00,10,28152387,158475
OK,79,106,1048,79,2014-10-01T17:05:00,8,28152833,158475
OK,79,106,1048,79,2014-10-01T17:10:00,15,28153280,158475
OK,77,109,1048,77,2014-10-01T17:15:00,17,28153729,158475
OK,77,109,1048,77,2014-10-01T17:20:00,21,28154139,158475
OK,78,107,1048,78,2014-10-01T17:25:00,17,28154588,158475
OK,90,93,1048,90,2014-10-01T17:30:00,10,28155030,158475
OK,91,92,1048,91,2014-10-01T17:35:00,21,28155478,158475
OK,81,103,1048,81,2014-10-01T17:40:00,16,28155896,158475
OK,72,116,1048,72,2014-10-01T17:45:00,5,28156345,158475
OK,80,105,1048,80,2014-10-01T17:50:00,6,28156793,158475
OK,93,90,1048,93,2014-10-01T17:55:00,8,28157232,158475
OK,96,87,1048,96,2014-10-01T18:00:00,13,28157662,158475
OK,76,110,1048,76,2014-10-01T18:05:00,15,28158110,158475
OK,69,121,1048,69,2014-10-01T18:10:00,9,28158554,158475
OK,73,115,1048,73,2014-10-01T18:15:00,5,28159000,158475
OK,91,92,1048,91,2014-10-01T18:20:00,11,28159446,158475
OK,94,89,1048,94,2014-10-01T18:25:00,13,28159781,158475
OK,74,113,1048,74,2014-10-01T18:35:00,8,28160679,158475
OK,69,121,1048,69,2014-10-01T18:40:00,6,28161117,158475
OK,91,92,1048,91,2014-10-01T18:45:00,10,28161566,158475
OK,89,94,1048,89,2014-10-01T18:50:00,11,28161983,158475
OK,90,93,1048,90,2014-10-01T18:55:00,12,28162432,158475
OK,91,92,1048,91,2014-10-01T19:00:00,11,28162826,158475
OK,94,89,1048,94,2014-10-01T19:05:00,3,28163265,158475
OK,94,89,1048,94,2014-10-01T19:10:00,4,28163713,158475
OK,71,118,1048,71,2014-10-01T19:15:00,7,28164162,158475
OK,72,116,1048,72,2014-10-01T19:20:00,9,28164593,158475
OK,77,109,1048,77,2014-10-01T19:25:00,13,28165042,158475
OK,90,93,1048,90,2014-10-01T19:30:00,7,28165467,158475
OK,91,92,1048,91,2014-10-01T19:35:00,7,28165915,158475
OK,84,100,1048,84,2014-10-01T19:40:00,8,28166356,158475
OK,88,95,1048,88,2014-10-01T19:45:00,8,28166718,158475
OK,78,107,1048,78,2014-10-01T19:50:00,17,28167167,158475
OK,75,112,1048,75,2014-10-01T19:55:00,14,28167596,158475
OK,77,109,1048,77,2014-10-01T20:00:00,3,28168029,158475
OK,83,101,1048,83,2014-10-01T20:05:00,4,28168478,158475
OK,78,107,1048,78,2014-10-01T20:10:00,8,28168923,158475
OK,92,91,1048,92,2014-10-01T20:15:00,12,28169372,158475
OK,90,93,1048,90,2014-10-01T20:20:00,12,28169820,158475
OK,76,110,1048,76,2014-10-01T20:25:00,7,28170246,158475
OK,95,88,1048,95,2014-10-01T20:30:00,8,28170691,158475
OK,91,92,1048,91,2014-10-01T20:35:00,9,28171139,158475
OK,66,127,1048,66,2014-10-01T20:40:00,10,28171576,158475
OK,70,120,1048,70,2014-10-01T20:45:00,10,28172022,158475
OK,90,93,1048,90,2014-10-01T20:50:00,7,28172470,158475
OK,85,98,1048,85,2014-10-01T20:55:00,3,28172916,158475
OK,74,113,1048,74,2014-10-01T21:00:00,2,28173362,158475
OK,79,106,1048,79,2014-10-01T21:05:00,2,28173811,158475
OK,90,93,1048,90,2014-10-01T21:10:00,3,28174252,158475
OK,67,125,1048,67,2014-10-01T21:15:00,8,28174701,158475
OK,67,125,1048,67,2014-10-01T21:20:00,8,28175127,158475
OK,78,107,1048,78,2014-10-01T21:25:00,5,28175523,158475
OK,74,113,1048,74,2014-10-01T21:30:00,4,28175972,158475
OK,74,113,1048,74,2014-10-01T21:35:00,8,28176421,158475
OK,74,113,1048,74,2014-10-01T21:40:00,7,28176870,158475
OK,89,94,1048,89,2014-10-01T21:45:00,3,28177226,158475
OK,93,90,1048,93,2014-10-01T21:50:00,7,28177666,158475
OK,93,90,1048,93,2014-10-01T21:55:00,14,28178112,158475
OK,92,91,1048,92,2014-10-01T22:00:00,0,28178561,158475
OK,81,103,1048,81,2014-10-01T22:05:00,1,28179008,158475
OK,80,105,1048,80,2014-10-01T22:10:00,2,28179442,158475
OK,93,90,1048,93,2014-10-01T22:15:00,4,28179885,158475
OK,93,90,1048,93,2014-10-01T22:20:00,7,28180332,158475
OK,91,92,1048,91,2014-10-01T22:25:00,4,28180730,158475
OK,86,97,1048,86,2014-10-01T22:30:00,3,28181179,158475
OK,77,109,1048,77,2014-10-01T22:35:00,2,28181603,158475
OK,59,142,1048,59,2014-10-01T22:40:00,0,28182051,158475
OK,98,85,1048,98,2014-10-01T22:45:00,3,28182498,158475
OK,97,86,1048,97,2014-10-01T22:50:00,4,28182947,158475
OK,94,89,1048,94,2014-10-01T22:55:00,2,28183364,158475
OK,93,90,1048,93,2014-10-01T23:00:00,1,28183797,158475
OK,93,90,1048,93,2014-10-01T23:05:00,0,28184242,158475
OK,93,90,1048,93,2014-10-01T23:10:00,0,28184691,158475
OK,93,90,1048,93,2014-10-01T23:15:00,0,28185126,158475
OK,74,113,1048,74,2014-10-01T23:20:00,1,28185574,158475
OK,74,113,1048,74,2014-10-01T23:25:00,1,28186005,158475
OK,95,88,1048,95,2014-10-01T23:30:00,3,28186397,158475
OK,92,91,1048,92,2014-10-01T23:40:00,6,28187244,158475
OK,94,89,1048,94,2014-10-01T23:55:00,0,28188576,158475
OK,98,85,1048,98,2014-10-02T00:05:00,1,28189461,158475
OK,93,90,1048,93,2014-10-02T00:10:00,3,28189883,158475
OK,93,90,1048,93,2014-10-02T00:15:00,3,28190332,158475
OK,98,85,1048,98,2014-10-02T00:20:00,1,28190685,158475
OK,98,85,1048,98,2014-10-02T00:30:00,0,28191583,158475
OK,90,93,1048,90,2014-10-02T00:35:00,3,28191889,158475
OK,94,89,1048,94,2014-10-02T00:45:00,0,28192771,158475
OK,94,89,1048,94,2014-10-02T00:50:00,0,28193215,158475
OK,94,89,1048,94,2014-10-02T00:55:00,0,28193582,158475
OK,86,97,1048,86,2014-10-02T01:05:00,0,28194480,158475
OK,86,97,1048,86,2014-10-02T01:10:00,0,28194929,158475
OK,86,97,1048,86,2014-10-02T01:15:00,0,28195165,158475
OK,94,89,1048,94,2014-10-02T01:25:00,0,28196063,158475
OK,77,109,1048,77,2014-10-02T01:30:00,5,28196347,158475
OK,68,123,1048,68,2014-10-02T01:35:00,2,28196796,158475
OK,68,123,1048,68,2014-10-02T01:40:00,0,28197219,158475
OK,95,88,1048,95,2014-10-02T01:45:00,0,28197668,158475
OK,95,88,1048,95,2014-10-02T01:50:00,0,28198116,158475
OK,93,90,1048,93,2014-10-02T01:55:00,0,28198564,158475
OK,93,90,1048,93,2014-10-02T02:00:00,0,28199013,158475
OK,93,90,1048,93,2014-10-02T02:05:00,3,28199385,158475
OK,93,90,1048,93,2014-10-02T02:10:00,3,28199827,158475
OK,96,87,1048,96,2014-10-02T02:15:00,0,28200269,158475
OK,96,87,1048,96,2014-10-02T02:20:00,0,28200712,158475
OK,96,87,1048,96,2014-10-02T02:25:00,0,28201161,158475
OK,76,110,1048,76,2014-10-02T02:30:00,5,28201592,158475
OK,78,107,1048,78,2014-10-02T02:45:00,0,28202490,158475
OK,88,95,1048,88,2014-10-02T02:50:00,9,28202932,158475
OK,88,95,1048,88,2014-10-02T02:55:00,5,28203380,158475
OK,95,88,1048,95,2014-10-02T03:00:00,3,28203815,158475
OK,77,109,1048,77,2014-10-02T03:10:00,4,28204264,158475
OK,90,93,1048,90,2014-10-02T03:25:00,15,28204713,158475
OK,71,118,1048,71,2014-10-02T03:30:00,0,28205162,158475
OK,91,92,1048,91,2014-10-02T03:35:00,11,28205590,158475
OK,78,107,1048,78,2014-10-02T03:40:00,5,28206037,158475
OK,95,88,1048,95,2014-10-02T03:45:00,14,28206420,158475
OK,106,79,1048,106,2014-10-02T03:55:00,0,28207318,158475
OK,93,90,1048,93,2014-10-02T04:00:00,10,28207737,158475
OK,96,87,1048,96,2014-10-02T04:05:00,3,28208186,158475
OK,75,112,1048,75,2014-10-02T04:10:00,13,28208613,158475
OK,90,93,1048,90,2014-10-02T04:15:00,0,28209062,158475
OK,95,88,1048,95,2014-10-02T04:20:00,15,28209500,158475
OK,96,87,1048,96,2014-10-02T04:25:00,7,28209949,158475
OK,74,113,1048,74,2014-10-02T04:30:00,35,28210372,158475
OK,87,96,1048,87,2014-10-02T04:35:00,17,28210821,158475
OK,75,112,1048,75,2014-10-02T04:40:00,35,28211246,158475
OK,75,112,1048,75,2014-10-02T04:45:00,9,28211690,158475
OK,72,116,1048,72,2014-10-02T04:50:00,0,28212068,158475
OK,72,116,1048,72,2014-10-02T05:00:00,9,28212946,158475
OK,82,102,1048,82,2014-10-02T05:05:00,42,28213395,158475
OK,85,98,1048,85,2014-10-02T05:10:00,11,28213833,158475
OK,77,109,1048,77,2014-10-02T05:15:00,34,28214282,158475
OK,78,107,1048,78,2014-10-02T05:20:00,11,28214695,158475
OK,77,109,1048,77,2014-10-02T05:25:00,28,28215144,158475
OK,74,113,1048,74,2014-10-02T05:30:00,9,28215560,158475
OK,87,96,1048,87,2014-10-02T05:35:00,0,28216009,158475
OK,153,54,1048,153,2014-10-02T05:40:00,60,28216348,158475
OK,157,53,1048,157,2014-10-02T05:45:00,19,28216788,158475
OK,123,68,1048,123,2014-10-02T05:50:00,0,28217235,158475
OK,171,49,1048,171,2014-10-02T05:55:00,60,28217684,158475
OK,174,48,1048,174,2014-10-02T06:00:00,46,28218123,158475
OK,153,54,1048,153,2014-10-02T06:05:00,33,28218572,158475
OK,129,65,1048,129,2014-10-02T06:10:00,5,28218992,158475
OK,80,105,1048,80,2014-10-02T06:15:00,68,28219441,158475
OK,78,107,1048,78,2014-10-02T06:20:00,63,28219814,158475
OK,77,109,1048,77,2014-10-02T06:30:00,83,28220697,158475
OK,76,110,1048,76,2014-10-02T06:35:00,79,28221146,158475
OK,75,112,1048,75,2014-10-02T06:40:00,64,28221527,158475
OK,74,113,1048,74,2014-10-02T06:45:00,37,28221813,158475
OK,74,113,1048,74,2014-10-02T07:00:00,47,28222407,158475
OK,73,115,1048,73,2014-10-02T07:10:00,31,28223287,158475
OK,73,115,1048,73,2014-10-02T07:15:00,11,28223722,158475
OK,68,123,1048,68,2014-10-02T07:20:00,0,28224170,158475
OK,79,106,1048,79,2014-10-02T07:25:00,48,28224525,158475
OK,72,116,1048,72,2014-10-02T07:35:00,25,28225423,158475
OK,73,115,1048,73,2014-10-02T07:40:00,6,28225745,158475
OK,76,110,1048,76,2014-10-02T07:50:00,38,28226635,158475
OK,92,91,1048,92,2014-10-02T07:55:00,23,28227084,158475
OK,92,91,1048,92,2014-10-02T08:00:00,12,28227499,158475
OK,80,105,1048,80,2014-10-02T08:05:00,18,28227948,158475
OK,77,109,1048,77,2014-10-02T08:10:00,8,28228307,158475
OK,90,93,1048,90,2014-10-02T08:20:00,8,28229166,158475
OK,84,100,1048,84,2014-10-02T08:25:00,20,28229615,158475
OK,74,113,1048,74,2014-10-02T08:30:00,9,28229965,158475
OK,74,113,1048,74,2014-10-02T08:40:00,14,28230780,158475
OK,67,125,1048,67,2014-10-02T08:45:00,0,28231228,158475
OK,92,91,1048,92,2014-10-02T08:50:00,34,28231652,158475
OK,74,113,1048,74,2014-10-02T08:55:00,8,28232101,158475
OK,74,113,1048,74,2014-10-02T09:00:00,24,28232443,158475
OK,73,115,1048,73,2014-10-02T09:10:00,0,28232892,158475
OK,72,116,1048,72,2014-10-02T09:15:00,32,28233341,158475
OK,71,118,1048,71,2014-10-02T09:20:00,8,28233765,158475
OK,88,95,1048,88,2014-10-02T09:25:00,28,28234214,158475
OK,89,94,1048,89,2014-10-02T09:30:00,11,28234547,158475
OK,91,92,1048,91,2014-10-02T09:40:00,10,28235423,158475
OK,65,129,1048,65,2014-10-02T09:45:00,0,28235872,158475
OK,65,129,1048,65,2014-10-02T09:50:00,0,28236315,158475
OK,95,88,1048,95,2014-10-02T09:55:00,19,28236762,158475
OK,72,116,1048,72,2014-10-02T10:00:00,9,28237165,158475
OK,95,88,1048,95,2014-10-02T10:05:00,0,28237612,158475
OK,84,100,1048,84,2014-10-02T10:10:00,28,28238061,158475
OK,85,98,1048,85,2014-10-02T10:15:00,30,28238508,158475
OK,77,109,1048,77,2014-10-02T10:20:00,31,28238949,158475
OK,74,113,1048,74,2014-10-02T10:25:00,17,28239398,158475
OK,75,112,1048,75,2014-10-02T10:30:00,2,28239828,158475
OK,92,91,1048,92,2014-10-02T10:35:00,30,28240277,158475
OK,93,90,1048,93,2014-10-02T10:40:00,32,28240721,158475
OK,85,98,1048,85,2014-10-02T10:45:00,36,28241170,158475
OK,75,112,1048,75,2014-10-02T10:50:00,17,28241602,158475
OK,80,105,1048,80,2014-10-02T10:55:00,33,28242050,158475
OK,78,107,1048,78,2014-10-02T11:00:00,8,28242446,158475
OK,99,84,1048,99,2014-10-02T11:05:00,0,28242895,158475
OK,77,109,1048,77,2014-10-02T11:10:00,34,28243344,158475
OK,80,105,1048,80,2014-10-02T11:15:00,21,28243669,158475
OK,75,112,1048,75,2014-10-02T11:20:00,28,28244107,158475
OK,80,105,1048,80,2014-10-02T11:25:00,16,28244536,158475
OK,77,109,1048,77,2014-10-02T11:30:00,0,28244985,158475
OK,82,102,1048,82,2014-10-02T11:35:00,31,28245434,158475
OK,79,106,1048,79,2014-10-02T11:40:00,10,28245840,158475
OK,86,97,1048,86,2014-10-02T11:45:00,0,28246289,158475
OK,79,106,1048,79,2014-10-02T11:50:00,40,28246726,158475
OK,80,105,1048,80,2014-10-02T11:55:00,44,28247175,158475
OK,82,102,1048,82,2014-10-02T12:00:00,43,28247621,158475
OK,80,105,1048,80,2014-10-02T12:05:00,20,28248051,158475
OK,93,90,1048,93,2014-10-02T12:10:00,0,28248500,158475
OK,76,110,1048,76,2014-10-02T12:15:00,36,28248947,158475
OK,80,105,1048,80,2014-10-02T12:20:00,13,28249375,158475
OK,78,107,1048,78,2014-10-02T12:25:00,35,28249819,158475
OK,74,113,1048,74,2014-10-02T12:30:00,12,28250238,158475
OK,78,107,1048,78,2014-10-02T12:35:00,32,28250636,158475
OK,73,115,1048,73,2014-10-02T13:20:00,27,28251961,158475
OK,93,90,1048,93,2014-10-02T13:30:00,47,28252545,158475
OK,93,90,1048,93,2014-10-02T13:35:00,20,28252987,158475
OK,88,95,1048,88,2014-10-02T13:40:00,0,28253404,158475
OK,83,101,1048,83,2014-10-02T13:50:00,24,28254258,158475
OK,72,116,1048,72,2014-10-02T13:55:00,23,28254579,158475
OK,74,113,1048,74,2014-10-02T14:10:00,45,28255156,158475
OK,76,110,1048,76,2014-10-02T14:15:00,52,28255605,158475
OK,78,107,1048,78,2014-10-02T14:20:00,38,28256033,158475
OK,94,89,1048,94,2014-10-02T14:25:00,11,28256482,158475
OK,74,113,1048,74,2014-10-02T14:30:00,41,28256910,158475
OK,73,115,1048,73,2014-10-02T14:35:00,62,28257359,158475
OK,73,115,1048,73,2014-10-02T14:40:00,42,28257800,158475
OK,76,110,1048,76,2014-10-02T14:45:00,39,28258248,158475
OK,76,110,1048,76,2014-10-02T14:50:00,38,28258681,158475
OK,78,107,1048,78,2014-10-02T14:55:00,37,28259127,158475
OK,77,109,1048,77,2014-10-02T15:00:00,35,28259576,158475
OK,85,98,1048,85,2014-10-02T15:05:00,28,28260023,158475
OK,79,106,1048,79,2014-10-02T15:10:00,26,28260456,158475
OK,75,112,1048,75,2014-10-02T15:15:00,22,28260905,158475
OK,93,90,1048,93,2014-10-02T15:20:00,8,28261345,158475
OK,78,107,1048,78,2014-10-02T15:25:00,36,28261727,158475
OK,76,110,1048,76,2014-10-02T15:40:00,12,28263050,158475
OK,74,113,1048,74,2014-10-02T15:45:00,25,28263488,158475
OK,69,121,1048,69,2014-10-02T15:50:00,9,28263929,158475
OK,68,123,1048,68,2014-10-02T15:55:00,0,28264331,158475
OK,69,121,1048,69,2014-10-02T16:00:00,23,28264780,158475
OK,75,112,1048,75,2014-10-02T16:05:00,18,28265218,158475
OK,74,113,1048,74,2014-10-02T16:10:00,22,28265658,158475
OK,73,115,1048,73,2014-10-02T16:15:00,10,28266054,158475
OK,83,101,1048,83,2014-10-02T16:20:00,29,28266503,158475
OK,76,110,1048,76,2014-10-02T16:25:00,27,28266952,158475